HKE599 RCKH-VHHX

Flight info

Callsign HKE599
Flight time 1h 17m
Altitude 38000
Route PARAS2A PARAS T7 WP521 G581 MAGOG
Aircraft A321/M-SDE3FGHIRWY/LB1

Departure

Time 2026-04-27 21:28
Airport Kaohsiung International Airport (RCKH)

Arrival

Time 2026-04-27 22:45
Airport Hong Kong International Airport Kai Tak (VHHX)
Time Latitude Longitude Altitude Speed Heading
2026-04-27 20:16 22.57271 120.33878 29 ft 0 kts 102°
2026-04-27 20:57 22.57274 120.33860 28 ft 3 kts 101°
2026-04-27 20:57 22.57278 120.33837 28 ft 3 kts 101°
2026-04-27 20:57 22.57281 120.33822 28 ft 3 kts 111°
2026-04-27 20:58 22.57277 120.33803 28 ft 2 kts
2026-04-27 20:58 22.57275 120.33803 28 ft 0 kts
2026-04-27 20:59 22.57276 120.33803 28 ft 0 kts
2026-04-27 21:00 22.57302 120.33805 28 ft 7 kts
2026-04-27 21:00 22.57353 120.33797 28 ft 8 kts 328°
2026-04-27 21:00 22.57406 120.33756 28 ft 10 kts 313°
2026-04-27 21:00 22.57434 120.33677 27 ft 12 kts 288°
2026-04-27 21:01 22.57488 120.33604 27 ft 14 kts 319°
2026-04-27 21:01 22.57565 120.33532 27 ft 16 kts 319°
2026-04-27 21:01 22.57650 120.33501 28 ft 0 kts
2026-04-27 21:26 22.57661 120.33503 26 ft 6 kts
2026-04-27 21:26 22.57719 120.33509 26 ft 10 kts 12°
2026-04-27 21:26 22.57751 120.33566 26 ft 10 kts 90°
2026-04-27 21:27 22.57750 120.33645 26 ft 11 kts 92°
2026-04-27 21:27 22.57741 120.33899 29 ft 71 kts 91°
2026-04-27 21:27 22.57718 120.34709 32 ft 140 kts 92°
2026-04-27 21:27 22.57678 120.35908 342 ft 166 kts 91°
2026-04-27 21:28 22.57627 120.37158 1059 ft 166 kts 97°
2026-04-27 21:28 22.57036 120.38206 1752 ft 172 kts 147°
2026-04-27 21:28 22.55842 120.38426 2171 ft 189 kts 192°
2026-04-27 21:28 22.54651 120.37660 2368 ft 212 kts 218°
2026-04-27 21:29 22.53483 120.36597 2664 ft 225 kts 219°
2026-04-27 21:29 22.52309 120.35488 3326 ft 227 kts 219°
2026-04-27 21:29 22.51107 120.34351 4203 ft 226 kts 219°
2026-04-27 21:29 22.49920 120.33236 5011 ft 227 kts 218°
2026-04-27 21:30 22.48721 120.32120 5812 ft 228 kts 218°
2026-04-27 21:30 22.47514 120.31003 6591 ft 230 kts 218°
2026-04-27 21:30 22.46284 120.29874 6905 ft 232 kts 218°
2026-04-27 21:30 22.45070 120.28762 6992 ft 231 kts 218°
2026-04-27 21:31 22.43842 120.27639 7008 ft 231 kts 218°
2026-04-27 21:31 22.42612 120.26514 7011 ft 231 kts 218°
2026-04-27 21:31 22.41386 120.25393 7011 ft 231 kts 218°
2026-04-27 21:31 22.40158 120.24274 7013 ft 231 kts 218°
2026-04-27 21:32 22.38928 120.23154 7007 ft 231 kts 218°
2026-04-27 21:32 22.37699 120.22034 7007 ft 231 kts 218°
2026-04-27 21:32 22.36471 120.20914 7007 ft 231 kts 218°
2026-04-27 21:32 22.35243 120.19797 7008 ft 231 kts 218°
2026-04-27 21:33 22.34014 120.18680 7012 ft 231 kts 218°
2026-04-27 21:33 22.32785 120.17562 7011 ft 231 kts 218°
2026-04-27 21:33 22.31557 120.16445 7010 ft 231 kts 218°
2026-04-27 21:33 22.30344 120.15303 7010 ft 232 kts 225°
2026-04-27 21:34 22.29443 120.13850 7014 ft 244 kts 245°
2026-04-27 21:34 22.28950 120.11988 7019 ft 274 kts 255°
2026-04-27 21:34 22.28520 120.09955 7009 ft 280 kts 255°
2026-04-27 21:34 22.28090 120.07901 7002 ft 281 kts 255°
2026-04-27 21:35 22.27657 120.05841 7009 ft 281 kts 255°
2026-04-27 21:35 22.27223 120.03783 7010 ft 281 kts 255°
2026-04-27 21:35 22.26786 120.01721 7011 ft 282 kts 255°
2026-04-27 21:35 22.26344 119.99643 7177 ft 287 kts 255°
2026-04-27 21:36 22.25899 119.97553 8070 ft 285 kts 255°
2026-04-27 21:36 22.25454 119.95468 8925 ft 285 kts 255°
2026-04-27 21:36 22.25006 119.93375 9759 ft 287 kts 255°
2026-04-27 21:36 22.24553 119.91259 10385 ft 295 kts 256°
2026-04-27 21:37 22.24072 119.89018 10570 ft 318 kts 256°
2026-04-27 21:37 22.23561 119.86633 10978 ft 331 kts 256°
2026-04-27 21:37 22.23037 119.84198 11625 ft 335 kts 256°
2026-04-27 21:37 22.22505 119.81732 12327 ft 338 kts 256°
2026-04-27 21:38 22.21980 119.79284 13022 ft 340 kts 256°
2026-04-27 21:38 22.21446 119.76791 13712 ft 343 kts 256°
2026-04-27 21:38 22.20905 119.74273 14304 ft 345 kts 256°
2026-04-27 21:38 22.20358 119.71742 14896 ft 348 kts 256°
2026-04-27 21:39 22.19804 119.69187 15496 ft 351 kts 256°
2026-04-27 21:39 22.19247 119.66616 16086 ft 353 kts 256°
2026-04-27 21:39 22.18686 119.64020 16685 ft 356 kts 256°
2026-04-27 21:39 22.18119 119.61405 17269 ft 359 kts 256°
2026-04-27 21:40 22.17546 119.58769 17858 ft 362 kts 256°
2026-04-27 21:40 22.16969 119.56113 18404 ft 365 kts 256°
2026-04-27 21:40 22.16395 119.53437 18916 ft 367 kts 257°
2026-04-27 21:40 22.16091 119.50690 19423 ft 371 kts 267°
2026-04-27 21:41 22.16025 119.47898 19957 ft 373 kts 267°
2026-04-27 21:41 22.15955 119.45095 20488 ft 375 kts 267°
2026-04-27 21:41 22.15878 119.42311 21011 ft 377 kts 267°
2026-04-27 21:41 22.15798 119.39472 21536 ft 379 kts 267°
2026-04-27 21:42 22.15720 119.36621 22062 ft 381 kts 267°
2026-04-27 21:42 22.15643 119.33752 22590 ft 383 kts 267°
2026-04-27 21:42 22.15565 119.30869 23106 ft 386 kts 267°
2026-04-27 21:42 22.15485 119.27964 23591 ft 388 kts 267°
2026-04-27 21:43 22.15404 119.25047 23986 ft 390 kts 267°
2026-04-27 21:43 22.15323 119.22113 24381 ft 392 kts 267°
2026-04-27 21:43 22.15239 119.19162 24777 ft 395 kts 267°
2026-04-27 21:43 22.15152 119.16191 25165 ft 397 kts 267°
2026-04-27 21:44 22.15066 119.13240 25548 ft 399 kts 267°
2026-04-27 21:44 22.14978 119.10236 25927 ft 401 kts 268°
2026-04-27 21:44 22.15132 119.07228 26293 ft 404 kts 276°
2026-04-27 21:44 22.15500 119.04211 26662 ft 407 kts 276°
2026-04-27 21:45 22.15871 119.01172 27037 ft 409 kts 276°
2026-04-27 21:45 22.16243 118.98125 27404 ft 411 kts 276°
2026-04-27 21:45 22.16616 118.95063 27766 ft 413 kts 276°
2026-04-27 21:45 22.16990 118.91978 28118 ft 416 kts 276°
2026-04-27 21:46 22.17365 118.88876 28470 ft 418 kts 276°
2026-04-27 21:46 22.17738 118.85756 28826 ft 420 kts 276°
2026-04-27 21:46 22.18108 118.82625 29172 ft 422 kts 276°
2026-04-27 21:46 22.18480 118.79478 29511 ft 424 kts 276°
2026-04-27 21:47 22.18856 118.76309 29844 ft 426 kts 276°
2026-04-27 21:47 22.19232 118.73120 30144 ft 428 kts 276°
2026-04-27 21:47 22.19608 118.69929 30421 ft 430 kts 276°
2026-04-27 21:47 22.19988 118.66723 30707 ft 432 kts 276°
2026-04-27 21:48 22.20369 118.63506 31002 ft 433 kts 277°
2026-04-27 21:48 22.20746 118.60316 31287 ft 435 kts 277°
2026-04-27 21:48 22.21128 118.57072 31575 ft 436 kts 277°
2026-04-27 21:48 22.21509 118.53819 31928 ft 436 kts 277°
2026-04-27 21:49 22.21885 118.50585 32353 ft 434 kts 277°
2026-04-27 21:49 22.22261 118.47360 32767 ft 433 kts 277°
2026-04-27 21:49 22.22633 118.44145 33164 ft 431 kts 277°
2026-04-27 21:49 22.23002 118.40936 33577 ft 430 kts 278°
2026-04-27 21:50 22.23373 118.37734 33971 ft 429 kts 278°
2026-04-27 21:50 22.23745 118.34548 34297 ft 428 kts 278°
2026-04-27 21:50 22.24121 118.31363 34623 ft 427 kts 278°
2026-04-27 21:50 22.24494 118.28185 34974 ft 426 kts 278°
2026-04-27 21:51 22.24861 118.25019 35343 ft 424 kts 278°
2026-04-27 21:51 22.25225 118.21860 35716 ft 423 kts 278°
2026-04-27 21:51 22.25586 118.18718 36086 ft 421 kts 278°
2026-04-27 21:51 22.25945 118.15589 36442 ft 419 kts 278°
2026-04-27 21:52 22.26294 118.12520 36784 ft 417 kts 278°
2026-04-27 21:52 22.26640 118.09415 37118 ft 415 kts 278°
2026-04-27 21:52 22.26978 118.06326 37444 ft 414 kts 277°
2026-04-27 21:52 22.27314 118.03243 37742 ft 413 kts 277°
2026-04-27 21:53 22.27652 118.00167 37921 ft 413 kts 277°
2026-04-27 21:53 22.27994 117.97096 37948 ft 411 kts 277°
2026-04-27 21:53 22.28696 117.90983 37947 ft 410 kts 278°
2026-04-27 21:54 22.29399 117.84870 37945 ft 410 kts 277°
2026-04-27 21:54 22.30094 117.78763 37945 ft 410 kts 277°
2026-04-27 21:55 22.30788 117.72657 37949 ft 410 kts 277°
2026-04-27 21:55 22.31480 117.66549 37955 ft 410 kts 277°
2026-04-27 21:56 22.32512 117.57360 37960 ft 411 kts 277°
2026-04-27 21:57 22.33197 117.51232 37962 ft 411 kts 277°
2026-04-27 21:57 22.33251 117.45060 37969 ft 412 kts 270°
2026-04-27 21:58 22.33156 117.39921 37967 ft 412 kts 270°
2026-04-27 21:58 22.33026 117.32730 37967 ft 411 kts 270°
2026-04-27 21:59 22.32932 117.27549 37969 ft 411 kts 270°
2026-04-27 21:59 22.32824 117.21373 37970 ft 411 kts 270°
2026-04-27 22:00 22.32708 117.15230 37970 ft 411 kts 270°
2026-04-27 22:00 22.32585 117.09055 37969 ft 411 kts 270°
2026-04-27 22:01 22.32462 117.02885 37969 ft 411 kts 270°
2026-04-27 22:01 22.32341 116.96719 37973 ft 411 kts 270°
2026-04-27 22:02 22.32214 116.90554 37971 ft 411 kts 270°
2026-04-27 22:02 22.32081 116.84387 37970 ft 411 kts 270°
2026-04-27 22:03 22.31947 116.78214 37959 ft 411 kts 269°
2026-04-27 22:03 22.31821 116.72070 37957 ft 411 kts 269°
2026-04-27 22:04 22.31686 116.65888 37963 ft 411 kts 269°
2026-04-27 22:04 22.31548 116.59705 37965 ft 411 kts 269°
2026-04-27 22:05 22.31407 116.53518 37971 ft 411 kts 269°
2026-04-27 22:05 22.31261 116.47386 37966 ft 411 kts 269°
2026-04-27 22:06 22.31114 116.41220 37977 ft 410 kts 269°
2026-04-27 22:06 22.30965 116.35056 37966 ft 410 kts 269°
2026-04-27 22:07 22.30822 116.28902 37963 ft 410 kts 269°
2026-04-27 22:07 22.30668 116.22751 37962 ft 409 kts 269°
2026-04-27 22:08 22.30513 116.16613 37973 ft 409 kts 269°
2026-04-27 22:08 22.30357 116.10484 37962 ft 408 kts 269°
2026-04-27 22:09 22.30201 116.04354 37958 ft 408 kts 269°
2026-04-27 22:09 22.30122 116.01295 37715 ft 406 kts 269°
2026-04-27 22:09 22.30041 115.98247 36194 ft 411 kts 269°
2026-04-27 22:09 22.29958 115.95130 34900 ft 415 kts 269°
2026-04-27 22:10 22.29874 115.92047 33986 ft 407 kts 269°
2026-04-27 22:10 22.29789 115.89000 32915 ft 402 kts 269°
2026-04-27 22:10 22.29703 115.86015 32108 ft 391 kts 269°
2026-04-27 22:10 22.29622 115.83125 31466 ft 385 kts 269°
2026-04-27 22:11 22.29540 115.80269 31279 ft 375 kts 269°
2026-04-27 22:11 22.29445 115.77493 31194 ft 364 kts 269°
2026-04-27 22:11 22.29342 115.74790 31116 ft 360 kts 269°
2026-04-27 22:12 22.29133 115.69394 30969 ft 363 kts 269°
2026-04-27 22:12 22.28931 115.63953 30821 ft 362 kts 269°
2026-04-27 22:13 22.28731 115.58521 30630 ft 362 kts 268°
2026-04-27 22:13 22.28627 115.55798 30246 ft 362 kts 268°
2026-04-27 22:13 22.28522 115.53078 29794 ft 363 kts 268°
2026-04-27 22:13 22.28418 115.50401 29366 ft 361 kts 268°
2026-04-27 22:14 22.28316 115.47694 28942 ft 359 kts 268°
2026-04-27 22:14 22.28216 115.45014 28537 ft 356 kts 268°
2026-04-27 22:14 22.28112 115.42346 28127 ft 354 kts 268°
2026-04-27 22:14 22.28007 115.39701 27745 ft 351 kts 268°
2026-04-27 22:15 22.27903 115.37076 27363 ft 349 kts 268°
2026-04-27 22:15 22.27797 115.34472 26968 ft 346 kts 268°
2026-04-27 22:15 22.27695 115.31889 26607 ft 343 kts 268°
2026-04-27 22:15 22.27595 115.29331 26236 ft 340 kts 268°
2026-04-27 22:16 22.27496 115.26792 25875 ft 337 kts 268°
2026-04-27 22:16 22.27398 115.24275 25486 ft 335 kts 268°
2026-04-27 22:16 22.27298 115.21766 25104 ft 333 kts 268°
2026-04-27 22:16 22.27198 115.19276 24716 ft 331 kts 268°
2026-04-27 22:17 22.27098 115.16829 24329 ft 330 kts 268°
2026-04-27 22:17 22.26969 115.14359 23939 ft 329 kts 263°
2026-04-27 22:17 22.26569 115.11932 23533 ft 328 kts 259°
2026-04-27 22:17 22.26131 115.09513 23077 ft 327 kts 259°
2026-04-27 22:18 22.25700 115.07111 22665 ft 324 kts 259°
2026-04-27 22:18 22.25274 115.04726 22252 ft 322 kts 259°
2026-04-27 22:18 22.24850 115.02357 21845 ft 320 kts 259°
2026-04-27 22:18 22.24429 115.00009 21435 ft 318 kts 259°
2026-04-27 22:19 22.24008 114.97669 21035 ft 316 kts 259°
2026-04-27 22:19 22.23590 114.95340 20631 ft 315 kts 259°
2026-04-27 22:19 22.23209 114.93019 20226 ft 313 kts 264°
2026-04-27 22:19 22.23132 114.90675 19829 ft 312 kts 269°
2026-04-27 22:20 22.23110 114.88334 19425 ft 311 kts 269°
2026-04-27 22:20 22.23086 114.85998 19023 ft 311 kts 269°
2026-04-27 22:20 22.23062 114.83665 18620 ft 311 kts 268°
2026-04-27 22:20 22.23037 114.81366 18218 ft 310 kts 268°
2026-04-27 22:21 22.23011 114.79036 17772 ft 310 kts 268°
2026-04-27 22:21 22.22986 114.76718 17366 ft 308 kts 268°
2026-04-27 22:21 22.22959 114.74419 16934 ft 303 kts 268°
2026-04-27 22:21 22.22930 114.72123 15693 ft 311 kts 268°
2026-04-27 22:22 22.22898 114.69745 14371 ft 322 kts 268°
2026-04-27 22:22 22.22867 114.67297 12964 ft 330 kts 268°
2026-04-27 22:22 22.22835 114.64796 11499 ft 336 kts 268°
2026-04-27 22:22 22.22801 114.62262 10225 ft 337 kts 268°
2026-04-27 22:23 22.22771 114.59815 9829 ft 311 kts 268°
2026-04-27 22:23 22.22747 114.57580 9706 ft 291 kts 268°
2026-04-27 22:23 22.22723 114.55426 9578 ft 285 kts 267°
2026-04-27 22:23 22.22695 114.53290 9448 ft 284 kts 267°
2026-04-27 22:24 22.22666 114.51194 9326 ft 283 kts 267°
2026-04-27 22:24 22.22635 114.49069 9199 ft 283 kts 267°
2026-04-27 22:24 22.22605 114.46947 9072 ft 283 kts 267°
2026-04-27 22:24 22.22575 114.44829 8947 ft 282 kts 267°
2026-04-27 22:25 22.22546 114.42709 8822 ft 282 kts 267°
2026-04-27 22:25 22.22519 114.40594 8697 ft 282 kts 267°
2026-04-27 22:25 22.22490 114.38484 8563 ft 281 kts 267°
2026-04-27 22:25 22.22460 114.36380 8444 ft 280 kts 267°
2026-04-27 22:26 22.22430 114.34275 8325 ft 280 kts 267°
2026-04-27 22:26 22.22400 114.32175 8203 ft 279 kts 267°
2026-04-27 22:26 22.22368 114.30079 8079 ft 279 kts 267°
2026-04-27 22:26 22.22338 114.27985 7958 ft 279 kts 267°
2026-04-27 22:27 22.22307 114.25896 7994 ft 279 kts 267°
2026-04-27 22:27 22.22276 114.23796 8011 ft 280 kts 267°
2026-04-27 22:27 22.22246 114.21722 8009 ft 279 kts 267°
2026-04-27 22:27 22.22217 114.19627 8010 ft 278 kts 267°
2026-04-27 22:28 22.22188 114.17595 8009 ft 263 kts 267°
2026-04-27 22:28 22.22159 114.15681 8007 ft 248 kts 266°
2026-04-27 22:28 22.22130 114.13871 8007 ft 235 kts 266°
2026-04-27 22:28 22.22102 114.12113 8009 ft 234 kts 266°
2026-04-27 22:29 22.22074 114.10359 8009 ft 234 kts 266°
2026-04-27 22:29 22.22045 114.08606 8008 ft 233 kts 266°
2026-04-27 22:29 22.22015 114.06852 8012 ft 234 kts 266°
2026-04-27 22:29 22.21985 114.05103 8010 ft 233 kts 266°
2026-04-27 22:30 22.21956 114.03356 8006 ft 232 kts 266°
2026-04-27 22:30 22.21849 114.01586 7404 ft 242 kts 259°
2026-04-27 22:30 22.21432 113.99780 6397 ft 255 kts 248°
2026-04-27 22:30 22.20666 113.98001 5267 ft 268 kts 237°
2026-04-27 22:31 22.19542 113.96347 4079 ft 279 kts 225°
2026-04-27 22:31 22.18081 113.94938 3040 ft 282 kts 212°
2026-04-27 22:31 22.16430 113.93914 2599 ft 262 kts 201°
2026-04-27 22:31 22.14805 113.93298 2501 ft 232 kts 191°
2026-04-27 22:32 22.13283 113.93019 2511 ft 218 kts 182°
2026-04-27 22:32 22.11812 113.93011 2528 ft 205 kts 173°
2026-04-27 22:32 22.10425 113.93237 2512 ft 199 kts 165°
2026-04-27 22:32 22.09111 113.93674 2510 ft 196 kts 157°
2026-04-27 22:33 22.07883 113.94304 2513 ft 195 kts 149°
2026-04-27 22:33 22.06776 113.95100 2513 ft 194 kts 141°
2026-04-27 22:33 22.05772 113.96068 2513 ft 193 kts 134°
2026-04-27 22:33 22.04906 113.97175 2510 ft 193 kts 126°
2026-04-27 22:34 22.04200 113.98399 2513 ft 193 kts 117°
2026-04-27 22:34 22.03925 113.99794 2516 ft 196 kts 81°
2026-04-27 22:34 22.04604 114.00969 2529 ft 182 kts 39°
2026-04-27 22:34 22.05749 114.01388 2512 ft 171 kts 12°
2026-04-27 22:35 22.06880 114.01682 2509 ft 165 kts 20°
2026-04-27 22:35 22.07971 114.02043 2512 ft 164 kts 20°
2026-04-27 22:35 22.09058 114.02412 2512 ft 164 kts 21°
2026-04-27 22:35 22.10155 114.02783 2514 ft 174 kts 21°
2026-04-27 22:36 22.11386 114.03200 2530 ft 190 kts 20°
2026-04-27 22:36 22.12703 114.03635 2527 ft 203 kts 19°
2026-04-27 22:36 22.14067 114.04078 2515 ft 206 kts 19°
2026-04-27 22:36 22.15444 114.04522 2512 ft 207 kts 19°
2026-04-27 22:37 22.16820 114.04964 2509 ft 206 kts 19°
2026-04-27 22:37 22.18194 114.05404 2507 ft 206 kts 20°
2026-04-27 22:37 22.19574 114.05846 2507 ft 209 kts 19°
2026-04-27 22:37 22.20968 114.06292 2403 ft 208 kts 19°
2026-04-27 22:38 22.22350 114.06733 2277 ft 207 kts 19°
2026-04-27 22:38 22.23696 114.07162 2153 ft 203 kts 19°
2026-04-27 22:38 22.25050 114.07595 2067 ft 203 kts 19°
2026-04-27 22:38 22.26403 114.07896 2001 ft 198 kts
2026-04-27 22:39 22.27737 114.07537 2009 ft 200 kts 335°
2026-04-27 22:39 22.28918 114.06752 2009 ft 200 kts 327°
2026-04-27 22:39 22.30075 114.05901 2007 ft 199 kts 326°
2026-04-27 22:39 22.31156 114.05098 1997 ft 179 kts 326°
2026-04-27 22:40 22.32131 114.04369 2027 ft 166 kts 327°
2026-04-27 22:40 22.33066 114.03676 1996 ft 161 kts 331°
2026-04-27 22:40 22.34111 114.03315 1826 ft 157 kts
2026-04-27 22:40 22.35107 114.03632 1693 ft 148 kts 42°
2026-04-27 22:41 22.35577 114.04546 1572 ft 141 kts 85°
2026-04-27 22:41 22.35835 114.05572 1254 ft 144 kts 64°
2026-04-27 22:41 22.36355 114.06484 1001 ft 141 kts 62°
2026-04-27 22:41 22.36804 114.07419 1049 ft 139 kts 72°
2026-04-27 22:42 22.37096 114.08426 1055 ft 140 kts 76°
2026-04-27 22:42 22.37327 114.09452 1051 ft 142 kts 79°
2026-04-27 22:42 22.37328 114.10484 1043 ft 139 kts 108°
2026-04-27 22:42 22.36743 114.11322 1028 ft 142 kts 140°
2026-04-27 22:43 22.35944 114.11950 1073 ft 141 kts 136°
2026-04-27 22:43 22.35388 114.12806 1098 ft 139 kts 112°
2026-04-27 22:43 22.35008 114.13764 1032 ft 139 kts 112°
2026-04-27 22:43 22.34638 114.14732 1015 ft 141 kts 110°
2026-04-27 22:44 22.34359 114.15743 960 ft 140 kts 103°
2026-04-27 22:44 22.34101 114.16758 753 ft 140 kts 111°
2026-04-27 22:44 22.33694 114.17708 578 ft 141 kts 118°
2026-04-27 22:44 22.33128 114.18572 391 ft 140 kts 130°
2026-04-27 22:45 22.32468 114.19337 176 ft 139 kts 132°
2026-04-27 22:45 22.31801 114.20087 40 ft 138 kts 134°
2026-04-27 22:45 22.31393 114.20533 33 ft 100 kts 136°
2026-04-27 22:45 22.31084 114.20876 33 ft 23 kts 135°
2026-04-27 22:46 22.30991 114.20978 33 ft 33 kts 134°
2026-04-27 22:46 22.30987 114.21084 33 ft 15 kts 20°
2026-04-27 22:46 22.31080 114.21030 33 ft 17 kts 313°
2026-04-27 22:46 22.31165 114.20932 32 ft 19 kts 313°
2026-04-27 22:47 22.31258 114.20824 33 ft 21 kts 313°
2026-04-27 22:47 22.31362 114.20709 31 ft 22 kts 317°
2026-04-27 22:47 22.31476 114.20586 33 ft 24 kts 314°
2026-04-27 22:47 22.31593 114.20453 33 ft 25 kts 313°
2026-04-27 22:48 22.31717 114.20310 33 ft 27 kts 313°
2026-04-27 22:48 22.31851 114.20164 33 ft 28 kts 316°
2026-04-27 22:48 22.31990 114.20012 33 ft 29 kts 314°
2026-04-27 22:48 22.32132 114.19853 32 ft 30 kts 314°
2026-04-27 22:49 22.32280 114.19686 33 ft 31 kts 314°
2026-04-27 22:49 22.32375 114.19593 32 ft 12 kts 319°
2026-04-27 22:49 22.32444 114.19529 31 ft 14 kts 319°
2026-04-27 22:49 22.32522 114.19454 33 ft 16 kts 318°
2026-04-27 22:50 22.32572 114.19420 33 ft 7 kts 348°
2026-04-27 22:50 22.32632 114.19445 33 ft 11 kts 31°
2026-04-27 22:50 22.32692 114.19421 33 ft 10 kts 286°
2026-04-27 22:50 22.32711 114.19394 33 ft 0 kts 316°